Orbital Elements at Epoch 2459200.5 (2020-Dec-17.0) TDB
Reference: JPL 21 (heliocentric ecliptic J2000)
Element | Value | Uncertainty (1-sigma) | Units |
e | .2940162360076214 | 4.6233e-08 | |
a | 2.256385306556774 | 7.5443e-09 | au |
q | 1.592971391740048 | 1.0297e-07 | au |
i | 8.874377956046752 | 5.1126e-06 | deg |
node | 85.02943733431437 | 2.9369e-05 | deg |
peri | 252.1161953858027 | 3.1444e-05 | deg |
M | 161.5075356475332 | 1.2258e-05 | deg |
tp | 2458645.096501470418 (2019-Jun-10.59650147) | 4.1125e-05 | TDB |
period | 1237.993377021127 3.39 | 6.2089e-06 1.7e-08 | d yr |
n | .2907931550217465 | 1.4584e-09 | deg/d |
Q | 2.919799221373499 | 9.7624e-09 | au |
|
| | Orbit Determination Parameters
Additional Information
|